Temp
24 24 24 24 24 24 24 24 24 24 24 24 24 24 24 25 25 24 24 24 25 25 24 24 24 24 24 24 24 24 23 24 23 23 24 24 24 24 24 24 24 24 24 24 24 24 23 24 24 24 24 24 24 25 25 25 25 25 25 25 25 26 25 25 26 26 26 26 26 26 27 26 27 27 27 27 27 27 27 27 27 27 27 27 27
23 24 24 24 24 24 24 24 24 24 24 24 24 24 24 25 25 25 24 24 25 25 24 24 24 24 24 24 24 24 24 24 24 24 24 24 24 24 24 24 24 23 23 24 24 24 24 23 24 24 24 24 24 25 25 26 26 26 26 25 26 26 25 25 25 26 26 26 26 26 26 26 26 26 26 27 27 27 27 27 26 26 26 27 27
24 24 24 24 24 24 24 24 24 24 24 24 24 24 24 24 25 25 24 24 24 25 24 24 24 24 24 24 24 24 24 24 24 24 24 24 24 24 24 24 23 24 24 24 24 24 24 24 24 24 24 24 24 24 25 25 25 25 25 25 25 26 25 25 25 25 26 26 26 26 26 26 26 26 26 26 26 26 26 26 26 27 27 27 27
24 24 24 24 23 23 23 23 23 24 24 24 24 24 24 24 24 25 24 24 24 24 25 24 24 24 24 24 25 24 24 25 24 24 24 24 24 24 24 24 24 24 24 24 24 24 24 24 24 24 24 24 24 24 25 25 24 25 25 25 25 25 25 24 24 24 25 25 25 25 26 25 25 26 26 26 26 26 26 27 27 27 27 27 26
24 24 23 23 23 23 23 23 23 24 24 24 24 24 24 24 24 24 24 24 24 24 24 24 24 24 24 24 25 25 25 25 25 25 25 25 25 24 24 24 24 24 24 24 24 24 24 24 24 24 24 24 24 24 25 25 24 25 25 25 25 25 24 24 24 24 24 25 25 25 25 25 25 25 26 25 25 26 26 27 27 27 27 27 27
23 23 23 23 23 23 23 23 23 23 23 24 24 24 24 24 24 24 24 24 24 24 24 24 24 24 24 24 24 25 25 25 25 25 25 25 25 25 24 24 24 24 24 24 24 24 24 24 24 24 24 24 24 24 24 24 24 25 25 24 24 24 24 24 24 24 24 24 25 25 25 25 25 25 25 26 26 26 26 26 26 27 27 27 27
23 23 23 23 23 23 23 23 23 23 23 23 23 23 23 24 24 24 24 24 24 24 24 24 24 24 24 24 24 25 25 25 25 25 25 25 25 25 24 24 24 24 24 24 24 24 24 24 24 24 24 24 24 24 24 24 25 25 25 24 24 24 25 25 25 24 25 25 25 25 25 25 25 25 26 26 26 26 26 26 26 27 27 27 28
22 22 22 22 22 22 22 22 22 23 23 23 23 23 23 23 23 24 24 24 24 24 25 25 24 24 24 24 24 24 25 25 25 25 25 25 25 25 25 25 24 24 24 24 24 24 24 25 25 25 25 25 25 25 25 24 24 25 24 25 24 24 24 25 25 25 25 25 25 25 25 25 25 25 26 26 26 26 25 25 25 26 27 27 28
22 22 22 22 22 22 21 21 21 22 22 23 23 23 23 23 23 23 23 23 24 24 24 24 24 24 24 24 24 24 24 25 25 25 25 26 25 25 25 25 25 24 24 25 25 24 25 25 25 25 25 26 26 25 25 25 25 24 24 24 24 24 24 24 24 24 24 25 25 25 25 25 25 26 26 26 26 26 26 25 25 26 26 26 27
21 21 21 21 21 21 21 21 21 21 22 22 22 23 23 23 23 23 23 23 23 23 24 24 24 24 24 24 24 24 24 25 25 25 25 25 25 25 25 25 25 25 25 25 25 25 25 25 25 25 26 26 26 26 26 26 25 25 25 24 24 24 24 24 24 24 24 25 25 25 26 26 26 26 26 26 26 26 26 25 25 25 25 25 26
20 20 20 21 21 21 21 21 21 21 22 22 22 22 23 23 23 23 23 23 23 23 23 23 24 24 24 24 24 24 24 25 25 25 25 25 24 24 24 24 25 25 24 24 25 25 25 25 25 25 25 26 26 26 26 26 26 25 25 25 25 24 24 24 24 24 24 25 25 25 26 26 26 26 26 26 26 26 26 25 25 25 25 25 25
19 19 20 20 20 20 20 21 20 21 21 21 22 22 22 22 22 22 22 22 23 23 23 23 23 24 24 24 24 24 24 25 25 25 25 25 24 24 23 24 24 24 24 24 24 25 25 25 25 25 25 25 25 25 25 26 26 25 25 25 25 25 24 24 24 24 24 24 25 25 26 26 26 26 26 26 26 26 25 25 25 25 25 25 25
18 19 19 19 19 20 20 20 20 20 20 21 21 21 21 21 22 22 22 22 22 22 22 23 23 23 24 24 24 24 24 24 25 25 25 25 24 24 24 23 24 24 24 24 24 24 24 24 25 25 25 25 25 25 25 25 25 25 25 25 25 25 25 25 25 24 24 24 24 24 25 25 25 25 26 26 25 25 25 25 25 24 24 24 25
18 18 18 19 19 19 19 19 19 20 20 20 20 20 20 20 21 21 21 21 21 22 22 22 22 23 23 23 24 24 23 24 24 25 25 25 24 24 24 24 24 24 24 24 25 25 25 24 24 24 25 25 25 25 24 24 24 24 24 24 24 25 25 25 25 25 25 24 24 24 25 25 25 25 26 25 24 24 24 24 24 24 24 24 24
17 17 18 18 18 18 18 19 19 19 19 19 19 19 20 20 20 20 20 20 21 21 22 22 22 22 22 22 23 23 22 23 24 24 24 24 24 24 24 24 24 24 24 25 25 25 25 25 24 24 25 25 25 24 24 23 23 23 23 24 24 24 24 25 25 25 25 25 25 25 25 25 25 25 25 25 24 24 24 24 24 24 24 24 24
17 17 17 17 18 18 18 18 18 18 19 19 19 19 19 19 19 20 20 20 20 20 21 21 21 21 22 21 22 23 22 21 22 23 23 24 24 24 24 24 24 24 24 25 25 25 25 25 25 24 24 25 25 24 24 23 23 23 23 23 24 24 24 25 26 26 26 25 25 24 25 25 25 25 25 25 24 24 24 23 23 23 23 24 24
16 16 16 17 17 18 18 18 18 18 19 19 19 19 19 19 19 19 19 20 20 20 20 20 20 21 21 21 21 21 21 20 21 22 22 23 23 23 23 23 23 23 24 24 24 25 25 25 24 24 23 24 24 23 23 23 23 23 23 23 24 24 25 25 26 26 26 26 25 25 25 25 25 26 26 25 25 24 24 23 23 24 24 24 25
16 16 16 17 17 17 18 18 18 18 18 18 18 18 19 19 19 19 19 19 19 20 20 19 19 20 20 20 20 20 19 19 20 20 21 21 22 22 21 22 22 22 22 23 23 24 24 24 24 23 23 22 22 22 22 22 22 22 22 23 23 24 24 25 25 25 25 25 25 25 25 25 25 25 26 26 25 24 23 23 24 24 25 25 26
16 16 17 17 17 18 18 18 18 18 18 18 18 18 18 18 18 19 19 19 19 19 19 18 18 19 19 19 19 19 19 19 19 20 20 21 21 21 20 21 22 22 22 22 22 22 22 22 22 22 22 22 22 22 22 22 22 21 22 22 23 24 24 24 24 24 24 24 24 24 24 24 24 24 25 26 25 25 24 24 24 24 24 25 25
16 17 17 17 18 18 18 18 18 18 18 18 18 18 18 18 19 19 18 18 18 18 18 18 18 18 18 19 19 18 18 18 18 19 19 20 20 20 20 20 20 21 21 21 22 22 22 22 22 21 21 21 21 21 21 21 21 21 21 22 22 23 23 22 22 23 23 23 23 23 23 23 23 23 24 24 24 25 25 24 24 23 24 24 24
16 17 17 17 18 18 18 18 18 18 18 18 18 18 18 18 19 18 18 18 18 18 18 18 18 18 18 18 18 18 17 17 18 18 19 19 19 20 19 19 19 19 20 20 21 21 21 21 21 20 20 20 20 20 21 21 21 20 20 21 21 22 22 21 22 22 22 22 23 23 23 23 23 24 24 24 24 24 24 24 24 23 23 24 24
16 16 17 17 17 18 18 18 18 18 18 18 18 18 18 18 18 18 18 18 18 18 18 18 18 18 18 18 17 17 17 17 17 18 18 18 18 19 19 19 19 19 19 19 19 19 19 19 19 19 19 19 19 20 20 20 20 20 20 20 20 21 21 21 21 21 21 22 22 22 23 23 23 24 24 24 24 24 24 24 24 24 23 23 24
16 16 16 16 17 17 17 17 17 18 18 18 18 18 18 18 18 18 18 18 18 18 18 18 18 18 18 18 18 17 17 17 17 18 18 18 18 18 18 18 18 18 18 18 18 18 18 19 19 19 19 20 20 20 20 20 20 20 20 20 20 20 20 21 21 21 21 21 22 22 22 22 23 23 23 24 24 24 23 23 23 23 23 23 23
15 16 16 16 16 16 17 17 17 17 17 18 18 18 18 18 18 18 18 18 18 17 17 17 17 17 17 18 18 18 17 17 17 17 17 17 17 17 17 17 18 18 18 17 17 18 18 18 19 19 19 20 20 20 20 20 20 20 20 20 20 20 20 20 20 20 21 21 21 22 22 22 22 23 23 23 23 22 22 22 22 23 23 23 23
15 15 15 15 16 16 16 16 16 17 17 17 17 17 17 17 17 18 17 17 17 17 17 17 17 17 17 17 17 18 17 17 17 17 17 17 17 17 17 17 17 17 17 17 17 18 18 18 18 19 19 19 19 19 19 19 19 19 19 20 20 20 20 20 20 20 20 21 21 21 22 22 22 22 22 22 22 22 22 22 22 23 23 23 23
14 14 14 15 15 15 15 15 16 16 17 17 17 17 17 17 17 17 17 17 17 16 16 16 16 16 17 17 17 17 17 16 16 16 16 16 16 16 16 17 17 17 17 17 17 17 18 18 18 19 19 19 18 18 18 18 19 19 19 19 20 20 20 20 20 20 20 20 20 21 21 21 21 21 21 21 21 21 22 22 22 22 23 23 23
13 13 13 14 14 14 15 15 15 16 16 16 17 17 17 17 17 17 17 17 16 16 16 16 16 16 16 16 16 17 16 16 16 16 16 16 16 16 16 16 16 16 16 17 17 17 18 18 18 18 18 18 18 18 18 18 18 18 18 18 19 19 19 19 19 19 19 19 19 19 20 20 20 20 20 21 21 21 21 21 22 22 22 22 22
13 13 13 13 14 14 14 14 15 15 15 16 16 16 16 16 16 16 16 16 16 16 16 16 16 16 16 16 16 17 16 16 15 15 15 15 15 15 15 15 16 15 15 16 16 16 17 17 17 17 17 17 17 18 18 17 17 17 18 18 18 18 18 17 17 17 17 17 17 18 18 19 19 20 20 21 21 21 21 21 21 21 21 21 21
12 13 13 13 14 13 14 14 14 14 15 15 15 16 16 16 16 15 15 15 16 16 16 16 16 16 16 16 16 16 16 15 15 15 15 15 15 15 15 15 15 15 15 15 16 15 15 16 16 16 16 16 17 17 17 17 17 17 17 17 17 17 17 16 16 15 15 15 16 16 16 17 18 19 20 20 21 21 21 21 21 21 21 21 21
13 13 13 13 13 13 14 14 14 14 14 14 15 15 15 15 15 15 15 15 15 15 15 15 15 15 15 15 15 15 15 15 15 15 15 15 15 15 14 14 14 14 15 15 15 15 15 15 15 15 15 15 16 16 15 15 15 15 15 15 16 16 16 15 15 14 14 14 14 15 15 15 16 17 18 18 19 19 19 20 20 20 20 21 21
13 13 13 13 13 13 13 13 13 14 14 14 14 14 15 15 15 15 15 15 15 15 15 15 15 15 15 15 15 15 14 14 14 14 14 14 14 14 14 14 14 14 14 14 14 14 14 15 15 14 14 15 14 14 14 14 14 14 14 14 14 14 14 14 13 12 12 13 14 14 14 14 15 15 16 16 16 17 18 18 19 20 21 21 21
12 12 12 12 12 12 12 13 13 13 13 13 14 14 15 15 15 15 15 15 15 15 15 15 15 15 15 14 14 14 14 14 14 14 14 14 14 14 14 14 14 14 14 14 14 14 14 14 14 14 14 14 14 13 13 13 13 13 13 13 13 13 12 12 11 11 11 12 13 13 13 14 14 14 15 15 15 16 16 17 18 19 20 21 21
12 12 12 12 12 12 12 12 12 13 13 13 13 13 14 15 15 15 15 14 14 14 14 14 14 14 14 14 13 13 13 13 13 13 13 13 13 13 13 13 13 13 13 13 13 13 14 14 14 14 13 13 13 13 13 13 13 13 13 13 12 12 12 11 11 11 11 11 11 12 13 14 14 14 14 14 14 15 15 16 16 17 18 19 20
11 11 11 11 11 11 11 11 12 12 12 12 13 13 13 13 14 14 14 15 14 14 14 14 14 14 14 13 13 13 13 13 13 13 13 13 13 13 13 13 12 12 12 12 13 13 13 13 13 13 13 13 13 13 13 12 12 12 12 12 12 12 12 11 11 11 11 11 11 11 12 12 13 13 13 13 13 14 14 15 15 15 16 17 17
10 10 10 10 10 11 10 11 11 12 12 12 12 13 13 13 13 13 14 14 14 14 14 14 13 13 13 13 13 13 13 13 13 13 13 12 13 12 12 13 13 13 13 13 13 13 13 13 13 12 12 12 12 12 12 12 12 11 11 11 12 11 11 11 11 11 11 10 11 11 11 11 11 12 12 12 13 13 13 14 14 14 14 14 15
9 10 9 9 10 10 10 10 11 11 11 11 12 12 12 13 13 13 13 13 13 14 13 13 13 13 13 13 13 13 13 13 13 13 13 12 12 12 12 13 13 13 13 13 13 13 13 12 12 12 12 12 12 11 11 11 11 11 11 10 10 10 11 11 11 10 10 10 10 10 10 10 11 11 11 12 12 12 12 12 12 12 12 13 13
9 10 9 9 9 9 9 9 10 10 10 10 11 11 11 12 12 13 13 13 13 13 13 13 13 13 13 12 12 12 12 12 12 13 12 12 12 12 13 13 13 13 13 13 12 12 12 12 12 11 11 11 11 11 11 11 11 11 10 10 10 10 10 10 10 10 10 10 10 10 10 10 10 10 11 11 11 11 12 12 12 12 12 12 12
9 9 9 8 8 9 9 9 9 9 10 10 10 11 11 12 12 12 12 12 12 12 12 12 12 12 13 12 11 11 11 12 13 13 13 12 12 12 13 13 13 13 13 13 12 12 12 12 11 11 11 11 11 10 10 10 11 10 10 9 9 9 9 9 9 9 10 10 10 10 10 10 10 10 10 10 10 11 11 11 11 11 11 11 12
8 8 8 8 8 8 9 9 9 9 10 10 10 10 11 11 11 11 11 11 11 11 11 11 11 11 11 11 11 10 10 11 12 13 13 13 13 13 13 13 13 13 12 12 12 11 11 11 11 10 10 10 10 10 10 10 10 10 10 9 9 9 9 9 9 9 9 10 10 10 10 10 10 10 10 10 10 10 10 10 11 11 11 11 11
8 8 8 7 8 8 8 8 9 9 9 9 9 10 10 10 11 11 11 11 11 11 10 10 11 10 10 10 9 9 9 10 11 12 12 13 13 12 12 12 12 12 12 11 11 11 11 10 10 10 10 10 10 9 9 9 10 10 9 9 9 9 9 9 9 9 9 9 9 9 9 9 9 9 9 9 10 9 9 9 10 10 10 10 10
8 8 8 7 7 7 8 8 9 8 9 9 9 10 10 10 10 10 10 10 10 10 10 10 10 10 9 9 8 8 9 10 10 11 11 12 12 11 11 11 11 11 11 11 10 10 9 9 9 9 9 9 9 9 9 9 10 10 9 9 9 9 9 9 9 9 9 9 9 9 9 9 9 9 9 9 9 9 9 9 9 10 10 10 10
8 8 8 7 7 8 8 8 8 8 8 9 9 10 10 10 10 10 9 9 9 9 9 9 9 9 9 8 8 8 8 9 10 10 10 11 11 10 10 10 9 9 9 9 9 8 8 8 8 8 9 9 9 9 9 9 9 9 9 8 8 8 8 9 9 9 8 9 8 8 8 8 8 8 8 8 8 8 9 9 9 9 10 10 10
7 7 7 7 7 8 8 8 8 8 9 9 9 9 9 9 9 9 9 9 9 9 9 9 9 9 9 8 8 8 8 9 9 9 10 10 10 9 9 9 9 8 8 8 8 7 8 8 8 8 8 8 8 8 8 8 8 8 8 8 8 8 8 8 8 8 7 7 7 7 7 7 7 7 7 7 8 8 8 8 9 9 9 10 10
7 7 7 7 7 7 8 8 8 8 8 8 8 8 8 8 8 8 8 8 8 8 8 8 8 8 8 8 8 8 8 8 8 8 9 9 9 9 9 9 8 8 8 8 8 8 8 8 8 8 8 7 7 7 7 7 7 7 7 7 7 6 6 6 6 6 6 6 5 6 6 6 6 6 6 7 7 7 8 8 9 9 9 10 10
7 7 7 7 7 7 7 8 8 8 8 8 8 8 8 8 8 7 7 8 8 8 8 8 8 8 8 8 8 8 8 8 8 8 8 8 8 8 8 8 8 8 8 8 8 7 7 7 7 7 7 7 7 7 7 6 6 6 6 5 5 5 5 5 4 4 4 4 4 4 5 5 5 5 5 6 6 7 7 8 8 9 9 9 10
7 7 7 7 7 7 7 7 7 7 7 7 7 7 7 7 7 7 7 7 7 7 7 7 7 7 7 7 7 7 7 7 7 7 7 7 7 7 7 7 7 7 7 7 7 7 7 7 7 7 7 7 6 6 6 5 5 5 4 4 4 4 4 3 3 3 3 3 3 3 4 4 4 4 5 5 5 6 7 7 8 8 9 9 10
6 6 6 6 6 6 6 6 6 6 7 7 7 7 7 7 6 6 6 6 6 6 6 7 7 7 7 7 7 6 6 6 6 6 7 7 6 6 6 6 6 6 6 6 6 6 6 6 6 6 6 6 5 5 5 4 4 4 4 3 3 3 3 3 3 3 4 3 3 3 4 4 4 4 5 5 5 6 6 7 7 8 9 9 10
6 6 6 6 6 6 6 6 6 6 6 6 6 6 6 6 6 6 5 5 5 5 6 6 6 6 6 6 6 6 6 6 6 6 6 6 6 6 6 6 6 6 6 6 6 6 6 6 6 6 5 5 5 4 4 3 3 3 3 3 3 3 3 3 3 3 3 3 3 4 4 4 5 5 5 5 5 5 5 6 7 8 8 9 10
6 6 6 6 6 6 5 5 5 5 5 5 6 6 6 5 5 5 4 4 4 5 5 5 5 5 5 5 5 5 5 5 5 5 5 6 5 5 5 5 5 5 5 5 5 5 5 5 5 5 5 4 4 4 3 3 3 3 3 2 2 2 3 3 3 3 3 3 3 4 4 4 5 6 5 5 5 5 5 5 6 7 8 9 9
6 6 6 6 5 5 5 5 5 5 5 5 5 5 5 4 4 4 4 4 4 4 4 4 4 4 4 4 4 4 5 5 5 5 5 5 5 5 5 4 4 4 4 4 4 4 4 4 4 4 4 4 4 4 3 3 2 2 2 2 2 2 2 2 3 3 3 3 3 3 4 5 5 5 5 4 4 4 5 5 6 7 8 9 9
6 5 5 5 5 5 5 4 4 4 4 5 5 5 4 4 4 4 4 3 3 3 3 3 3 3 4 4 4 4 4 4 4 4 4 4 4 4 4 4 4 4 3 3 4 4 4 4 4 3 3 3 3 3 3 2 2 2 2 2 2 2 2 2 2 3 3 3 3 4 4 4 4 4 4 4 5 5 5 6 7 7 8 9 9
Height
852 854 856 858 859 861 862 864 866 867 869 870 871 872 874 875 876 877 877 878 879 880 881 881 882 883 884 885 886 886 887 888 889 890 891 891 892 892 892 892 893 893 893 893 893 893 893 894 894 894 894 894 894 894 893 893 893 892 892 892 891 891 890 890 889 887 885 885 884 884 883 883 882 881 880 880 879 878 877 876 875 874 873 872 870
850 852 854 856 858 860 862 863 864 866 867 869 870 871 872 873 875 876 876 877 878 879 880 880 881 882 883 884 885 885 886 887 888 889 890 890 891 891 891 891 892 891 891 891 892 892 892 892 893 893 893 893 893 893 893 892 892 892 891 891 891 890 890 889 888 887 885 884 884 883 882 882 881 880 880 879 878 877 876 875 874 873 872 871 870
848 851 852 854 856 858 860 861 863 864 865 867 868 869 871 872 873 875 876 877 877 878 879 879 880 881 882 883 883 884 885 886 887 888 888 889 889 890 890 890 890 890 890 890 890 891 891 891 891 891 892 892 892 892 892 891 891 891 890 890 890 889 889 888 888 886 885 883 883 882 882 881 880 880 879 878 877 876 875 874 873 872 871 870 868
847 849 851 853 855 857 858 859 861 862 864 865 866 867 869 870 871 873 875 876 876 877 878 878 879 880 881 881 882 883 884 885 886 886 887 887 887 888 888 888 889 889 889 889 889 889 889 889 890 890 890 890 890 890 890 890 890 890 890 889 889 888 888 887 886 886 884 883 882 881 880 880 879 878 877 876 875 875 874 873 872 870 869 868 867
845 847 849 852 853 855 857 858 859 861 862 863 864 866 867 868 869 871 872 874 875 876 877 877 878 879 879 880 881 881 882 883 884 884 885 885 886 886 887 887 887 887 888 888 888 888 888 888 888 888 888 888 888 889 888 888 889 888 888 888 888 887 887 886 885 884 883 882 881 880 879 878 877 876 876 875 874 873 872 871 870 869 867 866 865
844 846 848 850 851 854 855 857 858 859 861 862 863 864 866 867 868 869 870 872 873 874 875 876 877 877 878 879 879 880 880 881 882 882 883 884 884 885 885 886 886 886 886 886 886 886 886 886 886 886 887 887 887 887 887 887 887 887 887 887 886 886 885 885 884 883 882 881 880 879 878 877 876 875 874 873 873 872 870 869 868 867 866 864 863
843 845 847 848 850 851 853 855 856 857 859 860 861 863 864 865 867 868 869 870 871 872 873 874 875 876 877 877 878 879 879 879 880 880 881 882 882 883 884 884 884 884 885 885 885 885 885 885 885 885 885 885 885 885 885 885 885 885 885 885 885 884 884 883 883 882 881 880 879 878 877 876 875 874 873 872 871 870 869 867 866 865 864 862 861
842 844 845 847 848 850 852 853 854 855 856 857 859 860 862 863 865 866 867 868 869 870 871 872 873 874 875 875 876 877 877 878 878 878 879 880 880 881 881 882 882 883 883 883 883 883 883 883 883 883 883 883 883 883 883 883 883 883 883 883 883 883 882 882 881 881 880 879 877 877 875 874 873 872 871 870 869 869 868 867 865 863 862 861 859
842 843 845 846 848 849 851 852 853 854 854 855 856 858 859 861 862 864 865 866 867 868 869 870 870 871 872 873 874 874 875 876 876 877 877 878 878 879 879 880 880 881 881 881 881 881 881 881 881 881 881 880 880 881 881 881 881 880 880 880 880 880 880 880 879 879 878 877 876 875 874 872 871 871 870 869 868 867 866 865 864 862 860 858 857
842 843 845 846 847 848 849 850 851 852 853 854 855 856 857 858 860 861 863 864 865 866 867 867 868 869 869 870 871 872 873 873 874 874 875 876 876 877 877 878 878 879 879 879 879 879 879 879 879 878 878 878 878 878 878 878 878 878 878 878 878 878 878 877 877 877 876 875 874 873 872 870 870 869 868 867 866 866 865 864 862 861 859 856 854
841 843 845 846 846 847 848 849 850 851 851 852 853 854 856 857 857 859 860 862 863 864 865 865 866 866 867 868 869 870 870 871 871 872 872 873 874 875 876 876 876 876 876 876 876 876 877 877 876 876 876 875 875 875 875 875 875 875 875 875 876 876 876 875 875 875 874 873 872 871 870 869 867 867 867 866 865 864 863 862 861 859 858 855 853
841 844 845 846 846 847 847 848 849 850 851 851 851 852 854 855 856 857 858 860 861 863 863 863 864 864 864 865 866 867 868 869 869 870 870 870 871 872 873 874 874 874 874 874 874 874 874 874 874 874 873 873 873 873 873 873 873 873 873 873 873 873 873 873 872 872 872 871 870 869 868 867 866 865 865 864 863 863 861 860 859 858 856 854 852
841 843 845 846 846 846 847 848 848 850 850 850 850 851 852 853 855 856 857 858 860 861 862 862 862 862 862 863 863 864 866 866 866 867 867 867 868 869 870 871 871 872 871 871 871 871 871 871 871 871 871 870 870 870 870 870 870 870 870 870 869 869 869 869 869 869 869 869 868 867 866 865 864 863 862 862 861 861 859 858 857 856 854 852 850
842 843 844 845 845 847 847 847 848 849 850 850 850 851 852 853 854 855 856 858 859 860 861 862 861 861 861 861 862 863 863 863 864 864 865 865 865 866 867 868 868 869 868 868 868 868 868 868 868 868 868 868 868 868 868 868 868 867 867 867 866 866 866 866 866 866 865 866 865 864 863 863 861 860 860 860 859 858 857 855 854 853 851 849 848
844 844 845 845 846 847 847 848 849 850 850 850 851 851 852 853 854 855 855 857 859 860 861 861 861 861 861 861 861 862 861 860 861 862 862 863 863 864 864 865 865 865 865 865 865 865 866 866 866 865 865 865 865 865 866 866 865 865 864 864 863 863 863 862 862 862 862 862 861 860 859 859 858 857 857 857 856 855 854 853 851 850 847 846 844
846 847 847 848 847 847 847 848 849 850 850 850 851 852 852 853 854 855 855 856 858 859 860 860 860 860 860 860 860 860 859 859 859 860 860 860 861 861 862 862 863 863 863 863 863 863 863 863 863 863 863 862 863 863 863 863 863 862 861 861 860 860 860 859 859 859 859 858 857 857 856 855 855 854 854 854 853 852 851 850 848 847 845 843 841
850 850 850 850 850 849 849 849 849 850 850 850 850 851 853 854 854 854 856 857 858 858 859 859 859 859 859 859 859 859 858 858 858 858 858 858 859 859 860 860 861 861 861 861 860 860 861 861 861 861 860 860 860 860 861 860 860 859 859 858 858 857 856 856 856 855 854 854 853 853 852 852 851 851 850 850 850 850 849 847 845 844 843 840 837
853 853 853 853 852 851 851 850 849 849 849 849 850 852 854 854 853 853 856 859 859 858 858 858 858 858 858 858 858 858 857 857 857 857 857 857 857 858 858 859 860 860 860 859 859 858 858 858 859 859 859 858 858 858 858 858 857 857 857 856 855 854 853 853 853 852 851 850 850 849 848 848 847 847 846 846 846 847 846 843 842 842 840 837 835
855 855 856 854 853 852 851 850 850 850 850 851 852 853 854 854 852 853 857 861 861 859 858 857 857 857 857 857 857 857 857 857 857 857 856 856 856 856 857 858 859 859 859 859 858 857 857 857 857 857 857 856 856 855 856 856 855 855 855 854 853 852 851 851 850 849 848 848 847 846 845 845 844 843 842 842 842 842 841 840 839 840 838 835 833
856 856 856 855 854 853 852 852 852 852 852 852 853 854 855 854 855 857 860 862 862 859 858 857 857 856 856 856 856 857 857 857 857 856 856 855 855 855 856 857 858 858 858 858 858 857 856 856 856 855 855 855 854 854 854 854 854 854 854 853 852 851 850 849 848 847 846 845 844 843 842 842 841 840 839 838 838 837 836 835 835 836 834 832 831
857 857 857 856 855 855 854 854 855 855 855 855 855 856 857 858 859 861 863 863 861 859 858 858 857 857 856 856 856 857 858 858 858 857 856 855 854 854 855 856 857 858 858 858 857 856 855 855 855 854 854 853 853 853 852 852 852 852 852 852 851 850 848 847 846 845 844 843 841 840 839 839 838 837 837 836 835 834 833 832 831 831 830 829 827
857 857 857 857 857 857 857 857 857 858 858 858 858 859 860 861 861 862 863 863 861 860 860 859 858 858 858 858 858 858 859 859 858 856 854 853 853 854 855 856 857 858 858 857 857 856 855 854 853 853 852 852 852 851 851 851 850 850 850 850 849 848 847 845 844 843 842 841 840 838 837 836 835 834 833 833 832 832 831 830 829 828 826 825 824
858 858 858 858 859 859 859 860 860 860 860 861 861 861 862 862 862 863 863 862 862 861 860 860 859 859 859 859 859 859 859 857 856 854 853 852 854 855 856 858 858 858 858 857 857 856 855 854 852 852 851 851 850 850 849 849 848 848 848 847 846 845 844 843 842 841 840 839 838 836 834 833 832 831 830 829 829 828 828 827 826 825 823 822 820
858 859 859 859 860 860 861 861 861 861 861 862 862 862 862 862 862 862 862 862 861 861 861 860 860 860 860 860 859 858 857 856 855 854 853 854 856 857 859 860 859 858 858 857 856 855 854 853 852 851 849 849 848 848 847 847 847 846 846 845 844 842 842 841 840 839 838 837 836 834 832 831 830 828 827 827 826 825 824 823 822 821 820 819 817
859 859 859 860 860 861 861 862 862 862 862 862 862 862 862 862 862 862 862 862 862 862 862 861 861 861 861 860 860 859 858 857 857 857 857 858 859 861 861 861 860 859 858 857 856 855 854 853 851 850 849 848 847 847 846 846 845 845 844 843 842 841 840 839 838 837 836 835 833 832 831 829 828 827 826 824 823 822 821 820 818 818 817 815 813
859 859 859 860 860 861 861 862 862 862 862 862 862 862 862 862 862 862 862 862 862 862 863 862 862 862 862 861 861 860 860 860 860 860 861 861 862 862 862 861 860 859 857 856 855 854 853 852 850 849 848 847 847 847 846 845 844 844 843 842 841 841 840 838 837 836 834 833 832 830 829 828 826 825 824 822 821 820 819 817 815 814 813 812 810
860 860 860 861 861 861 862 862 862 862 862 862 862 862 862 862 862 862 863 863 863 863 863 863 863 862 862 862 861 861 861 862 862 862 862 862 861 861 860 859 857 856 855 854 853 852 851 850 849 848 848 847 847 847 846 845 844 844 843 843 841 840 839 837 836 834 833 832 830 829 827 826 825 823 822 820 819 818 817 815 813 812 811 809 807
861 861 862 862 862 862 862 862 862 862 862 862 862 862 862 862 862 862 862 863 863 863 863 863 863 862 862 862 862 862 862 862 862 862 861 861 860 859 858 857 855 854 853 853 851 850 850 849 849 848 848 847 847 847 846 845 845 844 843 842 841 840 838 836 834 833 831 831 829 828 827 825 823 821 820 818 817 816 815 813 811 810 808 807 805
862 862 863 863 863 863 863 862 862 862 862 862 862 862 862 862 862 862 862 862 862 862 863 863 862 862 862 862 862 861 862 862 861 861 860 860 859 858 857 856 855 855 854 853 852 851 851 850 850 849 849 848 848 847 846 845 844 844 843 842 841 839 838 836 834 832 831 830 829 828 826 825 823 821 819 817 815 814 813 811 809 807 806 805 802
862 863 863 863 863 863 863 863 863 862 862 862 862 863 862 862 862 863 862 862 862 862 862 862 862 862 862 862 862 861 862 862 861 861 860 860 859 858 857 857 856 855 855 854 853 853 852 852 851 851 850 849 849 848 847 846 844 843 842 841 840 839 837 836 835 833 831 829 828 827 826 824 823 821 819 817 815 813 812 810 808 806 804 802 800
862 862 863 863 863 863 863 863 863 863 863 863 863 863 863 863 863 863 863 863 862 863 863 862 862 862 862 862 862 862 862 862 861 861 861 860 859 859 858 857 856 856 855 854 854 854 853 852 852 852 851 850 849 848 847 846 845 843 842 841 840 839 837 836 834 832 830 829 827 826 824 823 822 821 819 817 815 813 812 809 807 805 802 800 797
862 862 863 863 863 863 863 863 863 863 863 863 863 863 863 863 863 863 863 863 863 863 863 862 862 862 862 862 862 862 862 862 861 861 861 860 860 859 858 858 857 856 855 855 854 854 853 853 852 852 851 850 849 848 847 846 845 844 842 841 839 838 837 836 834 832 830 829 827 825 823 822 821 819 818 817 815 813 811 809 807 805 802 798 796
862 862 863 863 863 863 863 863 863 863 863 863 863 863 863 863 863 863 863 863 863 863 863 862 862 862 862 862 862 862 862 861 861 861 860 860 859 859 858 858 857 856 855 855 854 854 853 853 852 852 851 850 849 848 847 846 845 844 842 841 839 838 837 835 833 831 830 828 826 824 823 821 820 818 817 815 814 812 810 808 807 805 802 798 796
862 862 862 863 863 863 863 863 863 863 863 863 863 863 863 863 863 863 863 863 862 862 862 862 862 862 862 862 861 861 861 861 860 860 859 859 858 858 857 857 856 856 855 855 854 854 853 853 853 852 851 851 850 848 847 846 845 844 842 841 839 838 836 834 833 831 829 827 825 824 822 821 819 818 816 814 812 811 809 807 806 804 802 799 797
862 862 862 862 863 863 863 864 864 864 864 863 863 863 863 863 863 863 863 863 862 862 862 862 862 861 861 861 860 860 860 859 859 858 858 858 857 857 856 856 855 855 855 854 854 854 853 853 853 852 851 851 850 849 848 846 845 844 842 840 839 837 835 834 832 830 828 826 824 823 821 820 819 817 815 813 812 810 807 806 804 803 801 799 797
862 862 862 862 863 863 863 863 863 864 864 863 863 863 863 863 863 862 862 862 862 862 862 861 861 861 860 860 859 859 858 858 857 857 856 856 856 855 855 855 854 854 854 853 853 853 853 852 852 851 851 850 850 849 848 846 845 843 842 840 838 836 834 833 831 829 827 825 823 822 820 819 817 816 815 813 811 809 807 805 803 801 799 798 796
863 863 863 863 863 863 863 863 863 863 863 863 863 863 863 862 862 862 862 862 861 861 861 861 861 860 859 859 858 858 857 856 856 856 855 855 855 855 854 854 854 853 853 853 852 852 852 852 851 851 850 849 848 848 846 845 844 842 840 839 837 835 833 831 830 828 826 824 822 821 819 818 816 815 814 812 810 808 806 804 801 799 797 796 793
862 863 863 863 863 862 862 862 862 862 862 862 863 862 862 862 861 861 861 861 861 861 861 860 860 860 859 859 858 857 856 855 855 854 854 854 853 853 853 853 853 852 852 852 852 851 851 850 850 849 848 847 846 845 844 843 842 841 839 837 835 833 831 830 828 826 825 823 821 820 818 817 815 814 812 811 809 807 804 803 800 798 795 793 791
862 862 862 862 862 862 862 862 862 862 862 862 862 861 861 861 861 860 860 860 860 860 860 860 860 859 859 859 858 857 856 855 854 854 853 853 852 852 852 851 851 851 851 851 850 850 849 849 848 847 846 845 844 843 842 841 839 838 837 835 833 831 830 828 826 825 823 821 820 818 816 815 813 812 811 809 807 805 803 801 799 797 794 791 788
862 862 862 862 862 862 862 861 862 861 861 861 861 861 860 860 860 860 860 860 860 860 860 859 859 859 859 858 858 857 856 855 854 854 853 852 851 851 850 850 850 849 849 849 849 848 848 847 846 845 844 843 843 842 840 839 838 836 835 833 831 830 828 826 825 823 821 820 818 816 815 813 812 810 809 807 805 804 801 799 797 794 792 789 786
861 861 861 861 861 861 861 861 861 861 860 860 860 860 860 859 859 859 859 859 859 859 859 859 858 858 858 857 857 856 856 855 854 853 852 851 850 849 849 848 848 848 847 847 847 847 846 845 844 843 843 842 841 840 839 837 836 834 833 831 830 828 826 825 823 821 820 818 817 815 813 812 810 808 806 805 803 801 799 796 794 791 788 786 783
860 860 860 860 860 860 860 860 860 860 860 860 859 859 859 859 859 859 859 859 859 858 858 857 857 857 856 856 855 855 854 853 852 851 850 850 849 848 848 847 847 846 846 846 845 844 844 843 842 841 841 840 839 837 836 835 834 832 831 829 828 826 824 823 821 820 818 816 815 813 812 810 808 806 804 802 800 798 796 793 791 788 785 782 780
859 859 859 859 859 859 860 860 860 859 859 859 859 859 858 858 858 858 858 858 857 857 856 856 855 855 854 854 853 853 852 851 851 850 849 848 847 847 846 846 845 845 844 844 843 842 841 841 840 839 838 837 836 835 834 833 831 830 829 827 826 824 823 821 820 818 816 814 813 811 810 808 806 804 801 799 797 795 792 790 788 785 782 779 776
858 858 858 858 859 859 859 859 859 859 859 858 858 858 858 858 858 857 857 857 856 856 855 855 854 853 853 852 852 851 851 850 849 848 848 847 846 845 844 844 843 842 842 841 840 840 839 838 837 836 835 834 833 832 831 830 829 828 826 825 824 822 821 819 818 816 815 813 811 809 807 805 803 801 798 796 794 792 789 787 784 781 779 776 773
857 857 857 857 858 858 858 858 858 858 858 858 857 857 857 857 857 857 856 856 855 854 854 853 853 852 851 851 850 849 849 848 848 847 846 845 844 844 843 842 841 840 839 839 838 837 836 835 834 833 832 831 830 829 828 827 826 825 823 822 821 820 818 817 816 814 813 811 809 807 805 803 800 798 795 793 791 789 786 783 781 778 775 773 770
856 855 856 856 857 857 857 857 857 857 857 857 856 856 856 856 856 856 855 855 854 853 852 852 851 851 850 849 849 848 847 847 846 845 844 844 843 842 841 840 840 839 838 837 836 835 834 833 832 830 830 829 828 827 826 824 823 822 821 819 818 817 816 815 813 812 810 809 807 805 802 799 797 794 792 789 787 785 782 780 777 775 772 769 766
855 855 855 855 856 856 856 856 856 856 856 855 855 855 855 855 854 854 854 853 853 852 851 850 850 849 848 848 847 846 846 845 844 844 843 842 841 840 840 839 838 837 836 835 834 833 832 830 829 828 828 826 825 824 823 822 820 819 818 817 816 815 813 812 810 809 808 806 804 802 799 796 793 791 788 786 783 781 778 776 773 771 769 766 763
854 854 854 855 855 855 855 855 855 855 855 854 854 854 853 853 853 853 853 852 852 851 850 849 849 848 847 847 846 845 845 844 843 842 841 840 839 839 838 837 836 835 834 833 832 831 829 828 827 826 825 824 823 822 821 819 818 817 816 815 814 812 811 809 807 806 805 803 801 798 796 793 790 787 785 782 779 777 774 772 769 767 765 762 760
853 854 854 854 854 854 854 854 854 854 854 853 853 853 852 852 852 852 852 852 851 850 850 849 848 847 847 846 845 844 843 842 841 840 839 838 837 837 836 835 834 833 832 831 829 828 827 826 825 824 823 822 821 820 819 817 816 815 814 812 811 809 808 807 805 804 802 800 798 796 793 790 787 784 781 778 775 773 770 768 766 764 762 759 756
853 853 853 853 853 854 854 853 853 853 853 853 852 852 852 852 852 851 851 851 850 849 849 848 847 846 845 845 844 843 842 841 840 839 838 837 836 835 834 833 832 831 830 829 827 826 825 824 823 822 821 820 819 818 817 816 814 813 811 810 808 807 805 804 802 801 800 797 795 793 790 787 783 780 777 775 772 770 767 765 763 761 759 756 754
852 852 852 853 853 853 853 853 853 852 852 852 852 852 852 851 851 851 850 850 849 849 848 847 846 845 844 843 843 842 841 840 839 838 836 836 834 833 832 832 830 829 828 827 825 824 823 822 821 820 819 818 817 816 815 814 812 811 809 807 806 805 803 802 800 798 797 795 793 790 787 784 781 778 776 773 771 768 765 763 761 759 756 754 751
Wind_Speed
24 25 25 24 23 23 23 21 19 16 15 14 12 12 11 9 8 7 8 7 7 7 7 7 6 6 7 7 7 7 8 9 9 9 10 10 9 9 9 9 9 8 8 8 8 9 10 11 11 11 10 10 9 9 9 8 7 7 7 6 6 6 6 7 8 10 10 10 11 10 10 11 11 11 12 12 12 13 16 17 19 18 16 16 16
24 25 25 24 23 22 21 21 19 17 15 14 13 13 13 12 9 8 8 8 8 7 7 6 6 6 6 7 7 7 8 8 9 10 10 11 11 10 9 10 10 9 9 9 9 9 10 11 12 11 10 10 10 10 9 9 9 8 8 8 8 8 8 9 10 11 12 11 11 11 11 12 12 12 13 14 15 17 19 19 18 16 16 17 16
25 25 25 24 22 21 21 20 19 18 15 14 14 12 12 13 12 9 8 8 8 8 7 7 7 6 7 6 6 6 7 8 10 11 11 12 12 11 10 10 10 10 9 9 9 9 9 10 10 9 9 9 10 10 10 10 10 10 10 9 10 10 10 11 11 11 13 13 11 11 11 12 13 14 16 17 18 19 20 19 17 16 16 17 16
23 23 23 22 20 19 19 19 17 17 15 14 14 13 11 12 13 11 8 7 8 8 8 8 7 7 7 7 7 7 7 8 10 11 12 12 12 12 12 12 11 11 10 10 9 9 9 9 9 9 9 10 11 10 10 10 10 10 11 11 11 11 10 11 12 11 11 13 12 12 13 15 16 16 17 18 18 18 19 19 19 18 18 18 16
21 21 20 20 18 17 16 16 16 16 15 13 12 12 11 11 13 13 10 8 8 8 9 9 9 9 9 8 8 8 8 9 10 11 12 12 12 12 13 13 13 12 12 11 10 10 10 10 10 9 9 10 10 10 10 10 10 10 11 10 10 11 11 11 12 12 12 13 13 13 15 17 17 17 17 16 15 16 19 21 20 20 22 21 17
18 18 18 18 17 16 14 13 13 12 12 11 10 10 10 10 11 12 12 10 9 9 9 10 10 11 11 10 10 10 9 10 11 12 12 12 13 13 13 14 14 14 13 12 11 11 11 10 10 10 10 10 10 10 11 11 11 10 10 11 11 11 11 11 12 12 13 13 14 14 14 14 15 16 17 17 17 17 19 21 20 19 22 23 21
16 16 16 15 16 16 15 13 13 12 12 11 10 8 8 9 9 10 11 11 11 10 10 10 11 13 13 13 12 12 12 11 12 12 12 13 14 15 15 14 15 15 15 14 13 12 11 11 11 11 12 12 12 11 11 11 11 11 11 11 11 11 11 11 11 12 12 13 13 13 13 13 14 15 17 19 20 17 15 16 18 20 22 23 24
12 12 12 12 12 12 12 12 13 14 15 15 13 11 10 9 9 9 10 10 11 11 11 10 11 11 12 13 13 13 14 14 13 13 13 14 15 16 16 16 15 15 15 15 14 14 13 13 12 12 13 14 14 13 12 12 12 12 12 12 13 12 12 12 12 13 12 12 12 12 12 13 13 15 16 16 15 13 11 11 16 21 23 22 24
9 9 9 10 10 9 9 9 10 12 14 14 14 14 13 12 11 10 10 10 11 11 11 10 10 10 11 12 13 13 14 15 15 14 13 14 15 16 16 17 16 15 16 16 15 15 15 14 13 14 15 15 15 14 14 14 14 14 14 14 14 13 13 13 13 12 12 12 11 11 12 12 12 12 12 11 11 13 15 14 15 19 19 19 22
8 8 8 8 8 8 8 8 9 11 13 13 13 13 13 12 12 12 11 11 12 12 12 12 11 10 10 10 11 13 14 15 15 14 13 14 15 16 17 18 18 18 18 18 17 17 16 15 16 18 18 17 16 16 16 15 16 16 16 16 15 14 13 13 12 12 11 12 12 11 12 13 13 12 13 14 13 13 15 14 13 16 17 16 18
7 6 5 5 6 7 7 8 8 9 11 13 13 14 14 14 13 13 12 12 13 13 13 12 11 10 10 10 10 10 12 14 15 15 14 14 15 15 17 17 18 19 19 19 19 18 17 16 17 18 20 19 18 18 17 17 16 17 17 17 17 16 16 15 14 13 12 12 13 13 13 15 16 15 15 16 14 14 14 14 13 15 14 13 14
9 7 5 4 4 5 6 6 7 7 8 9 11 12 13 14 14 13 12 12 13 12 12 12 12 11 10 10 9 9 10 13 15 16 15 15 14 14 15 15 15 16 16 17 18 18 18 18 17 16 17 20 20 20 20 19 18 18 17 17 17 17 17 18 17 16 15 14 15 15 15 15 17 18 18 17 16 16 17 16 15 14 14 15 15
15 13 11 9 7 6 6 6 5 5 5 6 7 7 9 10 10 10 9 8 10 11 12 12 12 12 11 11 10 8 8 11 13 14 14 15 14 13 14 14 14 15 15 16 17 18 20 21 20 19 19 21 22 21 21 21 20 19 19 18 18 18 17 17 18 18 18 17 16 18 19 18 19 21 22 21 20 18 18 18 16 15 15 15 16
19 17 15 13 11 9 8 9 8 7 6 6 5 5 5 6 6 6 6 5 7 9 10 10 11 11 10 10 9 6 6 10 13 13 13 14 13 13 13 14 15 15 16 17 17 18 20 21 21 22 22 21 22 21 20 19 18 19 19 18 18 19 18 18 17 17 18 19 19 21 23 22 23 25 26 24 23 20 19 20 19 18 19 20 22
21 18 17 15 13 12 12 12 11 9 8 7 6 6 5 4 4 4 4 4 4 7 8 8 8 8 7 6 5 3 4 9 11 12 13 13 13 14 14 14 14 15 16 17 18 19 20 21 22 22 23 23 23 22 19 17 16 17 18 18 18 18 18 18 17 16 16 18 20 22 22 22 23 23 22 21 21 21 21 21 21 22 24 24 24
22 20 19 17 16 16 16 15 12 10 9 9 8 7 6 6 5 4 4 3 3 5 6 5 5 4 4 4 4 3 4 7 8 10 12 13 12 13 13 14 15 15 15 16 16 17 18 19 20 21 22 23 23 22 20 18 17 17 17 17 16 16 17 19 21 21 19 19 20 21 21 22 22 22 21 19 19 21 22 20 20 21 21 18 18
21 20 19 17 17 17 16 15 13 11 10 10 10 9 7 7 6 4 3 3 4 4 4 3 3 3 2 1 2 2 2 5 6 7 8 9 10 10 11 13 13 14 15 15 14 14 15 15 16 17 18 19 19 19 18 17 17 17 16 16 16 16 17 19 20 21 22 22 23 24 24 24 24 23 23 21 20 20 22 22 22 20 17 14 15
19 18 17 16 16 16 16 15 15 14 13 12 12 10 9 9 9 8 6 4 5 6 6 6 5 5 4 4 4 4 2 2 4 6 6 7 8 7 7 9 10 11 13 13 12 12 13 13 12 13 13 14 16 17 17 17 18 17 15 14 15 16 17 16 14 15 19 23 25 26 27 27 26 26 25 25 22 21 22 25 24 19 16 16 16
18 17 15 15 16 16 16 16 16 17 17 17 16 13 12 12 12 11 9 7 7 8 8 8 9 8 7 6 5 5 4 3 3 4 5 6 6 5 4 5 7 9 9 10 9 9 9 9 9 10 10 11 13 15 15 15 16 16 14 13 15 15 14 12 12 15 18 21 22 22 24 25 26 27 28 28 27 25 25 27 25 20 18 19 18
16 15 15 15 15 16 16 16 16 17 17 18 17 16 15 14 13 12 10 9 9 10 10 11 12 11 9 8 7 6 6 5 5 5 4 4 4 3 3 4 5 7 8 8 9 8 6 6 7 9 9 9 11 12 12 13 14 15 14 12 13 13 12 13 17 20 22 23 24 24 25 26 25 25 25 26 26 27 27 27 26 22 20 20 19
13 13 14 14 15 15 16 16 16 16 17 17 17 17 16 15 14 13 12 11 12 13 13 14 15 14 12 10 9 8 7 6 6 6 6 7 7 6 5 5 5 5 6 6 6 6 5 4 6 9 10 10 11 11 12 13 13 14 14 14 15 16 17 18 20 21 21 23 23 24 24 25 24 22 21 21 21 21 21 22 23 23 22 21 20
10 11 12 13 14 15 15 16 17 16 16 17 17 16 16 15 14 13 13 13 15 15 15 15 16 16 14 12 11 9 7 7 8 9 10 10 10 9 8 7 6 5 5 5 6 6 6 5 6 9 11 12 12 12 12 13 14 14 14 15 16 17 18 19 20 19 19 19 19 20 21 21 21 21 20 20 19 19 19 19 19 20 21 22 21
8 9 10 11 12 13 13 14 14 15 15 15 15 16 15 14 14 13 12 13 14 15 15 14 14 14 14 13 11 10 9 11 11 12 12 13 12 11 10 9 8 7 8 8 9 9 9 9 9 9 10 11 12 12 12 13 13 13 13 14 15 16 17 19 20 19 18 17 17 19 21 21 20 20 19 19 19 19 19 19 19 19 20 22 23
7 7 8 9 10 11 12 12 12 12 12 12 13 13 13 13 13 13 12 12 13 13 14 13 13 13 13 13 12 11 11 12 13 13 13 13 13 12 11 11 10 10 10 12 12 12 12 12 11 11 11 11 12 12 13 12 13 13 13 13 14 15 15 15 16 16 15 16 17 19 20 19 18 18 19 19 19 18 18 19 20 20 20 22 23
7 7 8 8 9 9 10 10 10 10 9 10 11 11 11 11 11 12 12 12 11 11 11 11 11 11 12 12 12 12 10 10 11 12 11 11 12 11 11 12 12 12 12 13 13 13 13 12 12 11 11 11 11 11 11 11 11 12 12 12 13 13 13 13 14 14 15 15 16 18 18 18 18 19 19 19 18 18 18 18 19 19 20 21 23
7 7 8 8 8 8 8 7 8 8 8 8 8 8 8 8 8 9 9 9 9 9 9 9 10 9 10 10 10 11 10 8 9 10 10 10 11 11 11 12 13 14 15 15 15 15 14 14 14 13 13 12 12 13 13 12 12 12 13 13 13 12 12 13 15 15 15 15 15 16 17 17 17 18 18 18 18 18 18 18 19 18 18 19 21
7 7 7 6 7 7 6 6 6 6 7 7 6 6 6 6 6 6 6 7 7 7 7 8 9 9 9 9 8 7 7 6 8 9 10 11 12 13 14 15 16 17 18 18 18 18 17 17 16 16 15 14 12 12 13 13 13 13 12 13 14 14 14 13 13 13 13 13 15 16 17 17 17 17 17 18 18 18 18 18 19 19 17 18 20
7 7 6 6 6 6 6 7 7 6 7 6 6 5 5 4 5 5 5 6 6 6 6 7 8 9 8 8 7 5 5 6 7 9 11 12 13 14 15 17 18 19 19 19 19 18 17 16 15 14 15 14 12 11 12 12 12 12 12 13 14 15 16 15 14 13 14 15 16 17 18 18 18 17 18 18 19 18 17 17 19 19 18 17 19
7 6 6 5 5 5 6 7 7 7 7 7 7 6 5 5 5 6 7 7 7 6 6 6 7 8 8 7 7 6 5 6 8 10 11 12 13 14 15 16 17 17 18 18 17 14 13 12 12 12 12 12 11 12 12 12 12 11 11 12 13 13 15 15 13 14 17 18 17 16 18 19 19 19 19 19 19 19 18 19 20 21 20 18 19
7 6 5 5 5 4 4 5 6 7 7 7 7 7 6 7 7 7 7 7 7 7 7 6 7 8 7 6 6 6 6 7 8 10 10 11 12 13 14 15 15 16 17 16 14 10 9 10 10 10 11 10 10 11 11 12 12 12 13 13 12 12 13 13 12 15 18 18 16 16 17 18 19 19 19 20 21 21 20 20 20 21 21 20 20
7 6 5 4 4 4 4 4 4 5 5 5 6 5 5 5 6 7 7 6 6 7 7 6 7 7 6 6 6 7 7 7 7 8 9 9 10 11 12 13 14 15 16 15 11 8 9 9 9 9 10 9 9 10 10 11 11 12 13 14 13 13 13 14 15 17 18 17 17 17 17 17 18 19 19 20 22 22 21 20 19 20 21 21 21
6 6 4 4 4 4 4 4 3 4 4 4 4 4 3 2 2 3 5 5 5 5 5 5 5 5 5 6 6 7 6 6 6 7 7 7 7 8 9 9 10 11 13 14 11 9 9 9 9 10 10 10 10 10 10 11 11 12 13 14 14 14 14 15 17 18 17 16 17 17 17 16 17 18 19 19 20 20 20 20 20 20 21 22 21
5 4 3 3 3 3 3 4 3 4 4 3 3 3 2 1 1 2 3 3 3 3 4 4 3 4 5 5 4 4 4 5 5 6 6 6 6 6 7 7 8 9 11 12 10 9 9 9 9 10 11 11 11 11 11 12 12 12 13 13 14 15 16 17 17 17 16 16 17 17 16 16 16 17 18 17 17 18 19 19 20 20 20 21 21
4 4 3 3 3 2 3 3 3 2 2 2 2 2 2 1 1 1 2 2 1 2 3 4 4 3 3 2 1 2 3 3 3 4 5 5 5 6 6 6 7 9 10 10 8 8 8 8 9 10 11 11 11 12 13 13 14 14 14 14 15 16 17 17 17 16 16 17 17 16 16 17 17 17 17 17 18 18 18 17 17 18 19 20 20
4 4 3 3 2 2 2 2 1 1 1 1 1 1 1 1 1 1 2 2 3 3 3 4 4 4 3 3 2 3 4 5 5 4 4 4 5 6 6 6 7 8 8 8 8 8 9 9 9 10 11 12 13 13 14 14 15 15 15 15 16 17 17 17 17 17 17 17 17 17 17 17 17 17 17 18 18 17 17 17 17 17 18 19 20
5 4 3 3 2 2 1 1 1 1 1 1 2 2 2 2 3 2 2 3 3 4 4 4 5 5 5 5 5 6 6 6 6 6 5 4 4 4 5 7 8 8 8 8 8 9 9 10 10 10 12 13 14 14 15 15 16 16 16 16 16 16 16 16 16 17 17 17 17 17 17 17 17 17 18 18 18 18 18 19 18 18 18 18 19
4 4 3 3 3 2 1 0 2 2 2 2 2 3 3 3 4 4 4 4 4 4 5 5 6 6 6 6 7 8 8 8 8 7 6 5 4 4 5 6 7 7 8 8 8 9 10 10 10 11 12 13 13 13 14 15 17 17 17 16 16 16 16 16 16 17 17 17 17 17 18 18 18 18 18 19 20 20 20 20 20 20 19 19 19
4 4 3 3 3 2 2 0 1 2 3 3 3 3 3 4 4 5 5 4 4 5 5 6 6 7 8 8 9 10 10 10 9 8 6 5 5 6 7 7 7 7 8 8 8 9 10 11 11 11 11 11 11 11 12 14 16 18 18 17 17 16 16 16 16 16 16 17 17 18 18 19 19 18 18 19 19 20 20 20 21 21 21 20 20
4 3 2 2 2 2 2 1 1 2 2 2 2 2 3 4 4 4 4 4 4 5 5 6 6 6 7 8 9 10 10 9 8 8 8 8 8 9 9 8 8 8 8 8 9 9 10 11 11 10 11 11 11 11 12 13 16 18 18 18 18 17 17 16 16 16 16 17 18 18 18 19 19 19 18 18 19 19 20 21 21 22 23 22 21
3 2 1 2 3 2 2 1 1 1 1 1 2 2 2 3 3 4 4 4 4 4 5 6 6 6 7 7 8 9 9 8 8 9 9 10 10 10 9 8 8 7 7 8 9 9 10 10 9 9 10 11 12 13 14 15 17 18 18 18 18 18 18 17 17 17 17 17 18 18 19 19 18 18 18 19 20 20 21 22 22 22 22 22 21
3 1 0 2 2 1 1 1 0 0 0 1 1 2 2 3 3 3 3 3 4 5 6 7 7 7 7 7 8 9 9 8 8 8 9 10 10 9 8 7 6 6 7 9 9 9 9 9 10 10 11 11 13 15 16 17 18 18 18 17 17 18 18 17 17 18 18 19 20 20 19 19 19 19 20 21 21 21 21 21 21 21 22 22 21
3 2 1 0 0 1 1 1 0 0 0 1 1 2 2 3 3 3 4 4 5 6 7 7 7 8 8 8 8 8 8 8 8 8 9 9 9 8 7 6 6 6 7 8 9 9 9 10 11 12 12 12 14 15 16 16 16 17 16 17 17 18 18 18 18 19 19 20 20 20 20 20 20 20 21 21 21 21 21 21 21 22 22 22 22
3 2 1 1 1 1 1 1 1 1 1 1 2 2 3 3 4 4 4 5 6 6 7 8 8 8 8 8 7 7 7 8 8 8 9 9 10 9 8 8 7 8 8 9 9 10 10 11 12 13 13 13 13 13 13 13 14 15 16 17 17 17 18 18 19 18 18 18 18 20 21 21 20 21 21 21 22 22 22 22 22 22 22 22 22
3 2 2 2 1 1 1 1 1 1 1 2 2 2 3 3 3 4 4 5 6 6 7 8 8 8 8 8 7 8 8 9 9 9 10 11 11 11 10 10 10 9 10 11 11 11 11 12 13 14 13 13 12 12 12 13 14 15 16 16 17 17 17 17 17 16 16 17 18 19 20 21 22 23 23 23 23 23 23 22 22 22 22 23 22
3 3 3 2 1 1 0 0 1 1 1 2 2 2 2 3 4 4 5 6 6 7 8 8 8 8 8 9 9 10 10 10 10 10 11 11 11 12 11 11 11 11 11 12 12 12 12 13 13 14 14 13 13 13 13 14 14 14 14 13 14 14 15 15 15 16 17 18 19 20 21 22 23 24 25 25 24 23 23 23 23 23 23 23 23
3 4 4 3 2 2 1 1 1 1 1 2 2 2 3 4 4 5 5 6 7 8 8 8 8 8 8 9 10 10 11 11 11 11 11 11 12 12 12 12 12 12 12 12 12 12 13 13 13 13 13 13 13 14 14 13 12 11 11 11 12 13 13 14 16 18 20 21 22 23 24 25 25 26 26 27 26 25 24 25 25 25 24 24 24
4 4 4 3 3 2 2 1 1 1 1 2 2 3 4 4 4 5 6 6 7 7 7 8 8 8 8 9 9 10 10 10 11 11 11 12 12 12 12 13 13 13 13 13 13 13 13 14 13 13 13 13 13 13 13 12 11 10 11 11 12 13 14 15 18 20 23 24 25 26 27 29 30 30 29 27 26 25 25 25 25 25 24 24 24
5 4 4 3 3 2 2 1 1 1 1 1 2 2 3 4 4 5 5 6 6 7 7 8 8 8 9 9 10 10 11 11 12 12 12 12 12 12 12 13 13 14 14 14 13 14 14 14 13 13 13 13 13 13 12 11 11 11 12 12 13 14 15 17 19 21 22 24 25 27 28 30 32 33 32 29 27 26 25 25 25 25 24 24 24
5 5 4 3 3 2 2 2 2 1 1 1 1 2 3 3 4 5 5 6 7 7 8 8 9 9 9 10 10 11 12 12 12 12 12 13 13 14 13 13 14 14 14 14 14 14 14 14 14 14 13 12 13 13 12 11 11 12 12 12 13 15 17 17 18 19 21 23 25 26 28 30 32 33 33 32 30 28 26 25 24 24 23 23 24
6 5 4 4 3 2 2 2 2 2 2 2 2 3 3 3 4 5 6 7 7 8 8 8 9 9 10 10 11 11 11 11 11 12 12 13 13 14 13 13 14 14 14 14 14 14 13 13 13 12 12 13 13 13 12 11 11 11 11 11 14 17 17 17 18 18 20 22 24 26 28 29 29 28 27 26 25 25 24 23 23 23 23 23 24
6 5 5 4 3 2 2 2 2 2 2 3 3 3 3 3 4 5 5 6 7 7 8 8 9 9 9 10 10 10 11 12 12 12 13 13 13 12 12 13 14 14 14 14 14 14 13 13 12 12 12 13 12 12 12 11 11 11 12 13 16 17 18 18 19 20 21 23 25 26 26 25 23 22 21 21 21 22 23 23 23 23 23 23 23
Wind_Direction
211 214 214 215 218 218 214 214 215 213 212 213 215 220 228 234 234 228 224 219 212 212 220 228 232 232 231 231 234 241 244 241 237 239 245 252 256 257 259 264 267 269 272 276 278 281 287 291 291 292 293 290 288 284 278 276 274 272 275 279 282 285 283 276 281 289 291 295 302 306 312 318 316 317 320 317 316 320 323 327 330 331 331 334 337
211 213 214 215 217 217 215 215 216 215 214 216 218 222 230 236 237 234 230 226 222 222 224 228 231 230 233 241 247 251 252 247 243 245 251 259 263 261 261 264 267 267 270 274 276 278 283 288 290 291 290 288 289 288 284 278 274 273 273 276 280 285 287 286 287 291 294 297 303 306 312 318 317 319 322 320 318 322 324 325 327 327 330 337 340
212 214 215 215 214 215 215 216 218 217 216 219 221 222 226 232 238 239 234 230 230 231 229 230 233 233 235 245 252 255 256 254 253 255 260 265 265 261 258 261 264 265 268 272 273 274 278 283 286 287 288 289 289 289 288 284 280 279 278 279 284 287 290 291 290 288 293 298 302 304 309 312 313 315 319 318 318 321 323 325 327 328 331 338 338
213 214 214 214 211 211 213 213 214 214 215 220 223 224 224 226 233 238 235 233 235 238 239 239 242 243 242 246 251 253 255 257 260 264 268 271 268 263 261 263 265 264 265 269 271 271 273 277 281 284 286 289 290 290 289 287 286 284 283 283 284 287 290 293 292 289 291 296 299 302 308 311 312 314 316 317 319 322 325 329 332 333 335 337 332
212 212 212 213 210 210 210 210 211 214 216 220 224 227 227 224 228 232 232 234 239 244 249 251 253 254 253 253 253 254 256 259 265 269 271 274 273 268 265 266 268 267 266 269 271 271 271 271 275 281 282 284 287 288 288 290 291 289 288 288 287 288 291 293 295 294 292 294 297 301 307 310 311 314 317 319 320 322 326 330 332 333 337 338 331
209 208 208 210 212 213 211 209 211 213 216 221 223 226 229 229 229 230 230 233 238 245 251 254 259 265 267 267 263 261 261 263 267 271 271 273 276 275 270 268 271 272 270 270 269 269 269 270 274 278 278 278 281 283 287 290 291 290 292 296 296 293 292 292 296 298 296 295 297 300 304 307 308 312 319 321 322 322 325 329 330 330 335 336 333
204 205 206 206 210 213 213 213 214 214 218 225 226 226 228 231 233 233 232 234 234 237 244 251 261 269 273 274 272 270 270 268 266 268 270 271 275 277 275 271 272 274 275 274 270 267 265 267 273 275 277 280 281 282 285 287 288 288 292 297 301 299 296 294 295 297 297 296 296 298 301 302 304 310 317 322 325 325 324 325 325 328 331 332 332
194 197 199 201 205 208 210 213 216 220 225 229 232 233 234 234 236 236 236 237 236 235 237 243 253 263 269 273 275 275 276 275 270 267 268 270 273 275 276 275 272 273 275 277 276 274 271 268 268 268 274 281 283 282 282 283 285 286 288 293 297 297 295 294 295 297 296 294 294 295 297 298 301 308 315 319 320 321 318 312 313 320 324 325 328
179 183 188 193 197 197 200 206 211 218 223 226 229 233 236 239 239 238 237 237 237 235 234 236 241 248 259 270 275 276 277 278 275 271 269 272 274 273 274 276 274 271 274 276 276 277 277 274 270 271 278 284 285 283 280 280 282 282 284 288 291 290 289 289 290 291 291 290 289 291 292 292 295 302 306 305 304 310 314 310 306 311 313 312 318
163 171 180 187 190 189 192 199 206 214 220 224 227 229 232 234 233 234 236 236 237 239 240 240 239 240 248 259 267 272 275 278 281 281 277 276 276 274 274 278 280 277 276 277 277 277 277 275 276 281 288 289 287 287 286 284 283 282 282 283 283 282 282 283 283 283 284 286 288 290 292 291 294 298 298 298 299 304 308 305 300 305 307 304 309
142 156 179 192 193 192 194 198 204 214 220 224 228 230 231 231 229 230 232 235 240 243 242 241 239 237 238 243 251 259 266 273 281 286 286 283 280 276 275 279 282 281 279 279 280 281 279 277 279 285 291 293 292 292 293 292 290 288 288 287 285 282 279 278 280 281 281 281 284 286 286 288 293 296 296 298 300 299 301 301 296 299 303 301 302
132 135 142 155 165 180 191 192 194 206 215 218 221 225 228 229 230 228 225 229 236 237 235 236 237 235 233 234 239 247 258 269 277 282 284 285 284 278 273 272 273 276 276 276 279 282 283 283 282 281 285 292 295 295 296 297 297 296 294 293 290 286 281 277 276 277 277 279 283 283 281 283 289 293 294 296 299 301 301 299 295 293 294 294 294
117 117 117 117 113 123 141 144 150 168 184 193 198 205 212 216 221 221 217 219 226 229 230 232 233 231 230 229 230 236 252 266 272 276 278 281 282 277 270 265 264 266 268 271 275 279 283 286 287 286 287 292 297 298 298 299 301 301 301 299 297 296 292 286 282 279 276 273 272 275 278 280 282 287 294 296 295 296 297 297 297 294 290 288 288
97 99 104 107 101 98 104 105 108 118 132 147 152 155 171 187 197 202 204 212 222 227 229 231 232 232 234 236 233 225 238 256 263 269 274 277 279 279 274 267 262 261 264 268 271 274 279 282 284 286 288 290 293 296 296 296 298 299 300 298 297 297 297 295 291 288 284 278 273 275 282 284 284 289 297 298 293 290 290 291 293 292 289 290 291
80 82 88 95 96 95 96 98 98 101 107 114 112 106 108 119 136 149 157 174 209 227 229 229 233 232 233 239 232 204 229 251 256 262 268 273 276 276 276 273 267 264 266 269 272 274 278 280 281 283 286 287 289 291 293 293 292 292 293 292 291 291 292 291 290 285 282 281 278 278 283 286 286 289 293 294 291 290 290 290 291 292 292 293 295
74 74 77 84 93 98 100 101 97 93 94 97 95 91 91 99 108 111 122 145 176 214 224 225 226 225 226 233 220 202 245 258 256 258 263 267 270 271 271 271 270 269 269 271 273 276 278 280 281 282 285 287 290 293 295 294 289 285 285 287 287 285 285 288 292 292 288 284 282 282 285 288 289 289 289 287 286 287 289 287 285 285 285 285 286
74 72 72 77 86 93 97 99 98 96 93 89 84 81 82 90 95 96 111 145 156 166 174 167 169 181 179 183 181 184 253 275 270 268 268 268 269 270 270 273 274 274 274 273 273 275 277 278 279 280 283 287 291 294 295 291 286 281 277 279 282 281 281 285 292 296 296 295 294 294 294 294 293 291 290 288 286 285 283 278 275 275 273 272 278
75 73 71 74 80 84 87 89 90 91 90 87 87 90 93 98 101 104 111 125 127 128 125 114 110 111 98 88 107 114 73 327 293 286 285 281 278 277 276 281 282 281 281 279 276 275 277 278 279 277 279 282 284 286 286 284 282 279 275 276 277 276 279 286 290 292 294 296 298 298 297 296 294 292 290 288 287 284 276 271 274 276 271 271 277
75 75 74 73 75 77 80 85 88 89 89 90 93 95 96 98 99 100 106 115 115 111 108 101 97 96 90 84 88 85 60 22 346 321 305 295 294 296 300 298 289 286 290 290 287 286 288 292 293 286 279 278 280 283 285 285 282 279 276 276 275 276 282 289 290 290 293 295 296 296 295 295 294 294 292 291 290 286 279 274 273 270 267 270 276
73 75 76 74 74 74 78 87 94 93 91 91 93 93 90 90 92 96 107 117 112 103 98 93 88 84 81 82 83 76 60 43 29 12 356 350 347 351 3 342 315 304 300 295 293 296 299 305 306 298 290 286 285 287 289 289 288 286 282 278 276 281 289 290 288 289 292 292 292 292 292 293 293 292 291 291 291 288 286 284 278 267 261 265 270
74 75 76 77 77 78 83 92 98 98 94 92 92 93 92 92 95 99 104 105 100 94 91 87 82 77 75 78 81 78 68 52 40 33 33 33 30 34 33 12 359 350 330 317 313 313 315 322 311 302 301 301 298 295 293 292 292 291 289 286 284 287 291 292 292 293 294 293 292 292 292 292 292 291 288 287 286 283 283 284 281 272 265 263 266
70 72 76 79 81 84 90 97 100 101 99 96 93 92 91 91 94 96 96 95 92 89 86 82 79 76 74 75 79 81 72 56 48 46 48 45 39 41 44 37 32 32 19 9 8 356 350 349 327 311 311 311 309 307 303 298 296 295 295 298 298 298 298 299 299 298 294 291 290 288 288 289 289 289 288 287 285 283 279 278 277 273 268 267 267
65 68 73 78 83 88 92 97 101 102 101 99 95 91 89 87 85 86 88 88 84 79 76 73 69 66 65 65 69 68 58 50 51 51 51 49 45 41 41 38 36 40 39 30 20 10 0 356 345 331 323 317 312 309 305 301 299 297 296 297 296 295 297 298 301 300 296 291 287 285 286 288 287 287 288 288 288 287 285 283 281 276 273 273 273
71 74 78 80 85 90 92 95 99 102 104 104 99 93 89 85 81 79 79 78 76 71 67 65 61 58 56 56 56 53 48 48 52 52 49 48 45 39 36 34 31 34 37 33 24 14 4 356 350 343 336 328 319 309 303 299 296 293 291 290 289 291 292 294 296 296 293 289 287 286 287 288 288 287 290 291 291 290 287 286 286 283 279 279 278
81 84 86 86 89 90 88 89 93 96 99 102 102 98 92 84 79 77 75 74 74 70 64 61 59 56 54 53 52 50 49 52 58 58 54 52 50 45 41 40 37 35 36 34 28 22 14 5 358 352 349 345 340 335 330 323 318 315 312 310 307 301 297 297 296 295 294 292 291 291 291 292 292 294 294 293 291 291 288 286 285 285 283 282 281
89 88 86 85 86 83 77 74 81 87 87 86 91 96 95 87 80 77 73 71 73 73 67 61 57 53 50 48 49 51 54 61 69 68 64 59 55 50 44 40 34 31 30 29 26 23 19 14 11 9 7 6 5 4 0 355 353 350 344 339 335 324 313 308 303 299 297 296 294 294 295 297 297 297 295 293 291 291 291 290 288 288 287 286 284
90 85 77 70 68 68 66 65 68 74 77 76 77 80 84 84 80 77 76 72 69 69 67 59 53 49 44 39 39 48 57 64 69 66 59 53 49 43 38 32 26 24 22 19 18 17 15 13 13 13 12 12 13 8 0 357 358 355 347 343 341 337 333 329 320 312 310 309 308 305 303 302 301 299 298 297 294 294 295 294 292 293 294 293 289
87 83 77 70 61 57 62 68 68 65 66 69 71 72 72 72 71 69 73 75 70 64 64 59 49 42 38 30 28 40 52 56 59 57 50 44 39 35 30 26 24 24 20 15 14 16 15 13 14 14 10 9 8 3 357 355 353 348 340 336 333 331 330 333 336 336 335 335 333 328 322 317 311 306 303 299 296 295 296 295 292 292 294 294 291
97 95 88 80 72 64 61 62 63 62 61 64 70 76 81 88 90 80 73 76 76 69 65 59 46 39 35 29 27 33 44 52 54 52 45 37 33 31 27 24 24 23 18 15 17 18 16 15 16 14 10 6 3 359 355 351 347 345 341 337 334 330 328 332 337 336 335 338 339 334 332 332 328 322 316 309 305 303 300 296 296 297 296 292 288
108 104 94 82 78 79 75 68 64 61 58 57 61 68 78 89 94 89 79 74 71 65 61 54 43 37 37 41 48 56 64 61 53 43 35 27 23 22 21 21 22 20 17 20 26 25 20 20 19 14 9 5 1 357 354 350 346 344 341 340 339 338 336 337 336 329 328 332 331 327 329 332 330 327 325 322 320 318 312 305 300 297 295 292 288
110 106 97 85 78 80 80 75 69 65 59 52 49 53 67 80 82 77 71 67 62 60 58 48 38 37 44 61 75 79 74 62 45 32 25 20 18 18 17 15 15 13 14 22 31 31 22 22 22 15 9 6 1 356 352 349 346 342 340 339 340 340 339 337 334 330 327 325 323 322 324 325 323 323 323 324 323 322 320 317 309 299 295 293 291
110 107 97 86 80 78 72 67 65 65 63 56 45 36 35 56 64 50 47 47 48 52 53 44 36 45 65 80 82 75 61 41 27 21 18 15 16 17 15 13 10 7 13 22 30 28 21 18 16 11 7 3 0 356 352 349 346 343 340 338 336 337 336 333 330 329 327 324 321 320 319 318 318 317 318 320 321 320 321 323 319 312 305 300 296
104 106 104 99 97 86 70 66 64 59 54 53 53 46 35 10 309 329 358 12 24 39 45 45 46 67 85 90 80 59 37 21 15 11 4 3 6 7 7 9 10 12 19 27 30 25 19 17 12 8 5 2 357 352 349 347 344 341 338 335 332 330 328 327 327 327 326 324 323 321 319 319 318 315 314 315 316 316 317 318 318 317 314 311 310
100 101 102 110 111 94 75 70 68 65 57 50 48 49 43 28 354 315 307 306 318 354 19 27 38 54 71 77 57 7 352 351 357 359 354 347 345 348 355 1 6 13 22 28 26 19 14 12 8 3 359 356 353 348 344 341 339 336 334 331 329 326 324 325 326 325 324 323 322 321 320 320 319 317 315 314 313 313 312 313 314 316 315 314 315
107 104 101 102 101 89 77 74 74 75 75 40 353 333 319 312 312 310 300 290 287 296 321 345 0 9 13 6 340 326 329 332 334 340 343 333 327 340 352 349 347 356 7 9 9 6 2 359 359 356 352 348 346 343 339 335 332 330 328 325 324 323 322 323 322 322 322 321 319 318 319 318 317 317 315 313 313 313 311 311 312 312 311 311 312
106 106 96 83 76 65 58 93 197 224 235 248 269 281 280 269 272 280 283 283 284 288 298 311 322 333 345 348 338 328 326 326 327 328 325 312 311 330 339 330 325 333 342 347 352 352 348 346 347 348 346 343 339 337 335 331 327 324 321 318 317 316 317 318 318 318 318 317 316 316 316 316 316 316 314 311 310 309 307 306 306 305 305 306 307
99 98 86 73 58 46 48 136 201 213 219 232 256 272 265 255 260 267 269 276 285 287 290 300 304 302 309 329 339 336 326 320 322 322 316 303 293 296 301 302 306 315 322 325 331 336 335 333 334 336 336 335 332 331 330 327 324 320 317 314 311 309 308 308 309 310 312 312 312 313 314 313 313 313 312 310 309 308 306 305 304 303 303 303 304
93 92 88 68 41 25 27 77 187 200 209 224 250 267 259 251 253 256 261 273 287 286 288 297 300 295 297 311 327 332 328 323 320 312 300 283 268 267 274 281 286 292 300 307 314 322 324 323 323 325 324 323 322 322 322 324 322 318 315 312 310 307 305 304 305 305 306 306 308 309 309 309 309 310 309 307 307 306 306 306 305 304 303 303 303
105 103 86 33 4 349 346 343 195 198 207 219 241 259 252 246 245 246 250 262 276 281 286 291 294 297 303 310 320 327 327 321 311 300 288 277 270 269 272 278 281 285 292 301 307 312 314 314 315 316 315 314 314 313 315 320 321 317 312 310 310 308 306 306 305 304 304 304 305 306 305 304 305 305 304 302 303 304 305 305 304 303 302 301 301
130 126 29 341 333 320 312 300 233 210 209 213 229 244 237 232 235 236 241 254 267 277 283 284 283 290 300 311 323 332 327 310 297 293 287 281 279 277 275 276 277 280 289 298 302 305 307 306 307 308 308 308 311 313 314 315 317 315 311 308 307 307 306 305 305 304 304 304 304 303 303 302 302 301 299 298 299 300 299 298 298 296 295 295 295
146 150 306 332 338 333 309 267 177 176 221 216 227 235 229 227 233 239 246 258 268 275 280 279 279 284 293 304 320 329 323 304 293 291 288 285 287 288 285 279 277 281 288 294 296 296 299 300 302 303 303 303 306 309 308 308 309 310 307 304 304 304 303 303 303 303 304 304 304 303 302 302 302 300 298 297 296 295 294 293 293 293 292 291 291
150 142 119 16 65 119 136 145 119 99 227 231 236 241 239 241 246 251 259 266 270 275 278 277 277 282 287 292 302 311 309 298 293 294 292 289 292 297 295 289 288 288 288 290 290 290 293 297 298 298 297 297 299 302 301 301 303 304 302 301 301 301 301 301 302 303 303 303 302 302 301 301 301 299 297 296 295 293 293 293 293 293 292 290 289
146 135 105 96 138 155 159 184 211 223 231 243 252 255 257 260 259 261 269 275 278 279 281 281 281 283 285 288 298 306 304 296 294 295 294 291 292 293 291 289 291 293 292 292 293 292 292 293 293 292 291 291 292 293 292 294 297 299 299 299 298 297 298 300 302 303 304 303 302 302 302 301 300 299 298 296 295 293 292 292 292 292 291 291 290
139 125 105 98 127 166 187 215 238 246 252 259 266 263 264 268 273 276 281 283 282 284 285 285 286 286 286 289 297 302 300 298 297 297 294 292 292 293 292 290 291 293 294 295 295 293 292 291 290 290 289 288 288 287 288 290 293 294 294 295 294 295 297 299 301 304 305 305 304 304 303 301 300 299 299 298 296 294 293 291 291 291 291 291 291
130 117 103 89 94 120 153 221 253 265 271 275 275 271 274 281 284 284 287 289 287 288 289 289 288 289 289 290 293 296 296 297 297 296 295 294 294 295 295 294 293 294 295 294 292 291 290 289 289 289 289 289 289 290 290 290 290 289 288 289 290 292 295 299 301 303 304 303 302 302 302 300 298 297 297 297 296 294 292 291 291 291 290 290 289
125 114 105 93 86 76 57 15 300 288 287 286 286 285 289 294 293 292 295 297 296 296 296 294 292 293 292 292 294 298 300 299 297 296 296 295 296 297 296 293 294 296 296 294 293 291 288 287 287 287 287 288 291 292 292 290 288 285 285 289 293 295 297 300 301 303 305 305 304 303 303 302 300 298 298 297 294 291 289 289 289 289 288 288 287
128 120 111 103 93 74 51 33 1 324 298 290 296 297 297 298 300 300 302 304 304 304 303 301 299 300 300 298 299 302 304 303 299 298 297 296 296 297 296 294 294 296 295 294 293 291 288 287 286 286 286 287 289 291 291 290 289 289 290 295 299 300 300 302 304 306 308 307 305 304 305 305 304 303 300 296 291 288 287 288 288 287 287 287 287
132 128 123 112 96 71 51 39 19 346 320 307 310 308 306 304 305 306 307 309 310 309 306 305 305 305 304 304 303 302 302 302 300 299 298 296 295 295 294 293 294 295 296 296 294 292 291 289 286 285 286 287 288 290 292 291 291 295 298 300 302 304 306 308 309 309 308 307 306 306 307 306 305 305 302 298 292 289 287 286 287 287 286 286 287
139 136 132 121 103 75 60 56 48 30 15 1 350 338 329 320 313 311 311 309 307 305 304 303 305 304 304 304 303 301 300 301 301 299 298 297 296 295 294 294 295 295 296 297 297 296 294 291 287 285 286 287 288 292 294 292 292 297 301 302 305 308 311 312 311 310 312 313 313 312 310 307 306 305 303 300 297 293 289 286 286 286 286 287 289
145 141 137 130 117 98 85 74 61 52 48 34 11 353 338 327 317 313 312 309 306 305 303 301 301 302 302 302 302 302 302 303 303 302 301 300 301 301 300 299 299 299 298 298 299 298 296 293 289 287 288 289 291 293 294 293 294 298 302 305 308 311 312 314 314 316 320 321 320 318 315 312 309 306 302 299 297 295 292 288 287 287 288 290 291
152 148 144 141 134 123 114 97 76 65 54 30 9 350 333 323 317 313 311 309 307 306 305 303 303 302 302 301 302 304 304 304 305 304 302 301 304 306 306 305 303 302 300 300 301 299 297 296 293 291 291 293 293 294 295 296 296 298 303 309 311 311 313 316 318 320 321 321 320 322 323 319 310 302 297 294 293 294 294 292 291 291 292 293 293